Location: Asheville, NC
(35.6000°N, 82.5500°W)
Time: 01:42:21
(UTC-05:00)

ISS - Pass Details

Date: 11 February 2018
Orbit: 403 x 407 km, 51.6° (Epoch: 22 February)

Event Time Altitude Azimuth Distance (km) Brightness Sun altitude
Rises 19:36:39 0° 310° (NW) 2,314 0.7 -18.5°
Reaches altitude 10° 19:38:44 10° 309° (NW) 1,452 -0.4 -18.9°
Maximum altitude 19:41:59 76° 225° (SW) 416 -3.8 -19.6°
Enters shadow 19:42:17 67° 170° (S) 436 -3.8 -19.6°
